This is the latest recevied weather packets stored in our database for station/object N4JTC. If no packets are shown the sender has not sent any weather packets the latest 10 day(s).
| Time | Temp. | Humidity | Pressure | Rain* | Wind** | Luminosity | Snow |
|---|---|---|---|---|---|---|---|
| 1778167803 | 27.78° C | 84% | 1015.8 hPa | 0 mm | - | 843 W/m² | - |
| 1778167503 | 27.78° C | 84% | 1015.7 hPa | 0 mm | - | 779 W/m² | - |
| 1778167204 | 27.22° C | 85% | 1015.7 hPa | 0 mm | - | 900 W/m² | - |
| 1778166903 | 27.22° C | 85% | 1015.5 hPa | 0 mm | - | 856 W/m² | - |
| 1778166603 | 26.67° C | 86% | 1015.6 hPa | 0 mm | - | 367 W/m² | - |
| 1778166303 | 27.22° C | 86% | 1015.7 hPa | 0 mm | - | 463 W/m² | - |
| 1778166003 | 27.22° C | 85% | 1015.5 hPa | 0 mm | - | 789 W/m² | - |
| 1778165703 | 27.22° C | 85% | 1015.6 hPa | 0 mm | - | 458 W/m² | - |
| 1778165403 | 27.22° C | 84% | 1015.4 hPa | 0 mm | - | 724 W/m² | - |
| 1778165103 | 27.22° C | 85% | 1015.3 hPa | 0 mm | - | 745 W/m² | - |
| 1778164502 | 27.22° C | 85% | 1015.3 hPa | 0 mm | - | 698 W/m² | - |
| 1778164203 | 27.22° C | 85% | 1015.3 hPa | 0 mm | - | 658 W/m² | - |
| 1778163902 | 27.22° C | 85% | 1015.2 hPa | 0 mm | - | 650 W/m² | - |
| 1778163303 | 26.67° C | 85% | 1015.3 hPa | 0 mm | - | 357 W/m² | - |
| 1778162703 | 26.67° C | 85% | 1015.6 hPa | 0 mm | - | 521 W/m² | - |
| 1778162403 | 26.67° C | 85% | 1015.1 hPa | 0 mm | - | 486 W/m² | - |
| 1778162103 | 26.11° C | 86% | 1015.3 hPa | 0 mm | - | 468 W/m² | - |
| 1778161503 | 26.67° C | 85% | 1015.6 hPa | 0 mm | - | 403 W/m² | - |
| 1778161203 | 26.11° C | 85% | 1015.4 hPa | 0 mm | - | 433 W/m² | - |
| 1778160903 | 26.11° C | 86% | 1015.4 hPa | 0 mm | - | 383 W/m² | - |
| 1778160603 | 26.11° C | 87% | 1015.5 hPa | 0 mm | - | 318 W/m² | - |
| 1778160302 | 26.11° C | 87% | 1015.5 hPa | 0 mm | - | 258 W/m² | - |
| 1778160003 | 25.56° C | 88% | 1015.6 hPa | 0 mm | - | 227 W/m² | - |
| 1778159704 | 25.56° C | 88% | 1015.6 hPa | 0 mm | - | 196 W/m² | - |
| 1778159103 | 25.56° C | 88% | 1015.6 hPa | 0 mm | - | 129 W/m² | - |
* Rain latest hour (hover to see other rain measurements)
** Current wind speed in m/s (hover to see current wind gust speed)